QPF
0.06 0.05 0.04 0.04 0.04 0.04 0.07 0.07 0.06 0.04 0.06 0.09 0.06 0.04 0.05 0.06 0.06 0.05 0.05 0.06 0.05 0.04 0.04 0.04 0.04 0.05 0.06 0.07 0.05 0.03 0.03 0.03 0.03 0.03 0.04 0.05 0.04 0.05 0.05 0.06 0.07 0.08 0.10
0.04 0.03 0.02 0.02 0.03 0.04 0.08 0.08 0.07 0.09 0.05 0.04 0.05 0.04 0.04 0.04 0.04 0.04 0.04 0.05 0.05 0.04 0.04 0.06 0.06 0.07 0.07 0.06 0.05 0.04 0.04 0.04 0.04 0.04 0.04 0.04 0.04 0.04 0.04 0.06 0.07 0.08 0.09
0.03 0.04 0.03 0.02 0.03 0.04 0.06 0.06 0.07 0.10 0.06 0.04 0.04 0.04 0.04 0.03 0.03 0.04 0.05 0.05 0.04 0.03 0.03 0.04 0.05 0.06 0.07 0.06 0.05 0.05 0.04 0.04 0.04 0.04 0.04 0.04 0.03 0.03 0.03 0.04 0.05 0.05 0.06
0.07 0.05 0.02 0.02 0.03 0.04 0.04 0.03 0.05 0.07 0.06 0.05 0.05 0.05 0.05 0.04 0.03 0.04 0.05 0.05 0.05 0.03 0.03 0.04 0.05 0.05 0.05 0.05 0.04 0.04 0.03 0.03 0.03 0.03 0.03 0.03 0.04 0.04 0.03 0.05 0.07 0.07 0.06
0.06 0.04 0.02 0.03 0.04 0.05 0.05 0.05 0.05 0.05 0.05 0.05 0.06 0.05 0.06 0.06 0.04 0.03 0.05 0.07 0.06 0.05 0.03 0.03 0.04 0.03 0.03 0.05 0.04 0.04 0.03 0.02 0.02 0.02 0.03 0.03 0.04 0.05 0.05 0.04 0.05 0.07 0.07
0.03 0.02 0.02 0.02 0.03 0.05 0.05 0.05 0.04 0.03 0.04 0.05 0.07 0.08 0.07 0.07 0.08 0.07 0.07 0.08 0.09 0.07 0.06 0.06 0.03 0.02 0.04 0.04 0.04 0.03 0.03 0.03 0.03 0.03 0.03 0.03 0.04 0.06 0.09 0.07 0.06 0.06 0.07
0.02 0.02 0.03 0.03 0.03 0.04 0.03 0.03 0.04 0.04 0.05 0.05 0.06 0.07 0.08 0.09 0.09 0.08 0.07 0.10 0.09 0.10 0.10 0.11 0.05 0.03 0.03 0.03 0.03 0.03 0.03 0.03 0.03 0.02 0.03 0.03 0.02 0.04 0.07 0.08 0.09 0.10 0.09
0.02 0.02 0.02 0.02 0.03 0.02 0.02 0.02 0.03 0.04 0.04 0.05 0.06 0.07 0.07 0.06 0.08 0.09 0.10 0.12 0.15 0.16 0.08 0.07 0.05 0.05 0.04 0.04 0.04 0.03 0.03 0.04 0.04 0.03 0.02 0.02 0.02 0.02 0.04 0.05 0.07 0.08 0.08
0.02 0.03 0.03 0.03 0.02 0.03 0.02 0.02 0.03 0.03 0.04 0.04 0.05 0.07 0.07 0.05 0.05 0.06 0.08 0.11 0.13 0.09 0.07 0.09 0.09 0.08 0.06 0.07 0.06 0.04 0.05 0.05 0.04 0.04 0.04 0.03 0.02 0.01 0.01 0.02 0.04 0.05 0.04
0.02 0.03 0.03 0.03 0.03 0.03 0.02 0.02 0.02 0.03 0.04 0.04 0.05 0.07 0.06 0.06 0.07 0.06 0.07 0.10 0.11 0.08 0.05 0.04 0.04 0.04 0.05 0.08 0.11 0.06 0.03 0.03 0.03 0.03 0.04 0.04 0.04 0.02 0.02 0.02 0.03 0.05 0.05
0.01 0.02 0.02 0.02 0.02 0.02 0.01 0.02 0.03 0.04 0.04 0.04 0.05 0.06 0.08 0.06 0.08 0.06 0.05 0.08 0.10 0.09 0.06 0.04 0.05 0.03 0.02 0.03 0.04 0.03 0.02 0.02 0.02 0.02 0.02 0.03 0.04 0.03 0.03 0.03 0.03 0.04 0.04
0.02 0.02 0.02 0.01 0.02 0.02 0.02 0.02 0.03 0.05 0.04 0.04 0.03 0.03 0.05 0.05 0.06 0.05 0.04 0.05 0.08 0.08 0.07 0.06 0.05 0.06 0.04 0.03 0.02 0.03 0.03 0.02 0.01 0.01 0.01 0.02 0.02 0.02 0.03 0.04 0.03 0.04 0.04
0.02 0.02 0.02 0.02 0.01 0.01 0.02 0.02 0.02 0.03 0.04 0.06 0.05 0.04 0.05 0.05 0.05 0.05 0.05 0.06 0.07 0.08 0.08 0.07 0.05 0.05 0.04 0.03 0.02 0.02 0.03 0.03 0.02 0.01 0.01 0.01 0.01 0.01 0.02 0.02 0.03 0.04 0.04
0.02 0.02 0.02 0.02 0.02 0.02 0.02 0.03 0.03 0.02 0.04 0.05 0.05 0.04 0.04 0.04 0.05 0.05 0.06 0.07 0.07 0.06 0.06 0.06 0.05 0.04 0.04 0.05 0.04 0.03 0.04 0.05 0.05 0.02 0.02 0.01 0.01 0.02 0.02 0.02 0.02 0.02 0.03
0.04 0.03 0.02 0.02 0.03 0.03 0.03 0.02 0.02 0.02 0.03 0.02 0.02 0.02 0.02 0.02 0.04 0.04 0.05 0.07 0.07 0.06 0.06 0.06 0.06 0.05 0.04 0.04 0.04 0.04 0.04 0.06 0.06 0.04 0.03 0.03 0.02 0.02 0.02 0.02 0.03 0.03 0.02
0.05 0.05 0.03 0.03 0.03 0.03 0.03 0.03 0.02 0.02 0.02 0.01 0.01 0.02 0.01 0.01 0.02 0.03 0.04 0.05 0.06 0.08 0.06 0.05 0.06 0.06 0.04 0.03 0.04 0.05 0.03 0.03 0.04 0.04 0.04 0.04 0.04 0.04 0.03 0.03 0.03 0.03 0.04
0.05 0.05 0.03 0.02 0.02 0.02 0.02 0.03 0.02 0.02 0.02 0.01 0.01 0.01 0.01 0.01 0.01 0.02 0.03 0.03 0.03 0.06 0.05 0.03 0.04 0.07 0.06 0.04 0.03 0.03 0.03 0.03 0.03 0.03 0.04 0.04 0.05 0.05 0.04 0.04 0.04 0.03 0.03
0.02 0.02 0.02 0.01 0.02 0.02 0.02 0.03 0.02 0.02 0.02 0.02 0.02 0.02 0.01 0.02 0.02 0.03 0.02 0.02 0.02 0.04 0.05 0.03 0.02 0.04 0.06 0.05 0.04 0.02 0.02 0.02 0.02 0.02 0.02 0.03 0.04 0.04 0.04 0.04 0.03 0.03 0.03
0.01 0.01 0.02 0.02 0.02 0.02 0.03 0.03 0.02 0.02 0.02 0.02 0.02 0.03 0.02 0.03 0.02 0.02 0.02 0.02 0.02 0.03 0.04 0.04 0.02 0.03 0.04 0.05 0.05 0.04 0.03 0.02 0.02 0.02 0.02 0.03 0.03 0.03 0.04 0.04 0.04 0.05 0.05
0.03 0.03 0.03 0.04 0.03 0.02 0.03 0.03 0.03 0.02 0.03 0.02 0.02 0.03 0.03 0.03 0.03 0.03 0.03 0.03 0.03 0.03 0.04 0.04 0.03 0.03 0.03 0.04 0.05 0.05 0.03 0.01 0.01 0.01 0.02 0.03 0.03 0.02 0.03 0.03 0.04 0.05 0.05
0.03 0.04 0.04 0.04 0.03 0.03 0.03 0.03 0.03 0.02 0.02 0.02 0.03 0.04 0.04 0.03 0.04 0.05 0.05 0.04 0.06 0.07 0.07 0.07 0.07 0.06 0.04 0.03 0.03 0.05 0.05 0.02 0.01 0.01 0.01 0.02 0.02 0.03 0.03 0.03 0.03 0.05 0.05
0.05 0.06 0.07 0.07 0.06 0.05 0.05 0.04 0.03 0.02 0.03 0.03 0.03 0.04 0.04 0.05 0.05 0.05 0.06 0.07 0.08 0.08 0.07 0.07 0.07 0.05 0.03 0.03 0.03 0.04 0.06 0.05 0.02 0.02 0.02 0.02 0.02 0.02 0.03 0.02 0.03 0.05 0.05
0.08 0.07 0.07 0.07 0.06 0.06 0.06 0.05 0.05 0.04 0.04 0.04 0.04 0.04 0.04 0.04 0.04 0.05 0.06 0.07 0.07 0.07 0.07 0.07 0.05 0.04 0.03 0.02 0.02 0.02 0.03 0.06 0.05 0.03 0.02 0.02 0.02 0.02 0.03 0.03 0.03 0.04 0.04
0.07 0.08 0.09 0.07 0.06 0.06 0.05 0.05 0.05 0.05 0.04 0.03 0.03 0.03 0.03 0.03 0.03 0.04 0.05 0.05 0.06 0.07 0.07 0.05 0.04 0.03 0.03 0.02 0.02 0.02 0.02 0.03 0.05 0.04 0.03 0.02 0.01 0.02 0.02 0.02 0.03 0.04 0.04
0.03 0.05 0.08 0.09 0.06 0.05 0.04 0.04 0.03 0.03 0.03 0.02 0.03 0.04 0.04 0.04 0.05 0.06 0.06 0.06 0.06 0.08 0.07 0.04 0.04 0.04 0.03 0.03 0.03 0.02 0.02 0.02 0.03 0.04 0.04 0.03 0.02 0.01 0.01 0.02 0.02 0.02 0.02
0.02 0.03 0.04 0.06 0.06 0.05 0.04 0.03 0.03 0.02 0.02 0.04 0.05 0.05 0.05 0.05 0.06 0.05 0.05 0.05 0.05 0.05 0.04 0.03 0.04 0.03 0.03 0.03 0.03 0.02 0.02 0.02 0.03 0.03 0.04 0.04 0.03 0.02 0.02 0.01 0.01 0.01 0.01
MSLP
1007.14 1006.52 1005.86 1005.23 1004.70 1004.31 1004.07 1003.94 1003.90 1003.90 1003.91 1003.90 1003.90 1003.93 1004.01 1004.15 1004.37 1004.64 1004.94 1005.24 1005.53 1005.81 1006.11 1006.45 1006.87 1007.40 1008.01 1008.69 1009.38 1010.02 1010.55 1010.95 1011.22 1011.40 1011.55 1011.73 1011.98 1012.33 1012.77 1013.26 1013.76 1014.22 1014.61
1007.62 1007.08 1006.49 1005.90 1005.38 1004.97 1004.69 1004.54 1004.50 1004.54 1004.62 1004.72 1004.83 1004.94 1005.06 1005.19 1005.33 1005.49 1005.65 1005.83 1006.03 1006.27 1006.56 1006.94 1007.40 1007.95 1008.56 1009.18 1009.78 1010.30 1010.71 1011.01 1011.21 1011.37 1011.54 1011.76 1012.06 1012.45 1012.90 1013.39 1013.85 1014.27 1014.60
1007.96 1007.53 1007.05 1006.55 1006.09 1005.70 1005.42 1005.25 1005.19 1005.23 1005.32 1005.46 1005.61 1005.75 1005.88 1006.00 1006.10 1006.19 1006.29 1006.41 1006.57 1006.80 1007.11 1007.50 1007.98 1008.51 1009.08 1009.62 1010.10 1010.50 1010.79 1011.00 1011.15 1011.30 1011.48 1011.73 1012.07 1012.48 1012.94 1013.41 1013.84 1014.20 1014.50
1008.19 1007.87 1007.52 1007.15 1006.79 1006.47 1006.23 1006.07 1006.01 1006.03 1006.12 1006.26 1006.41 1006.56 1006.70 1006.80 1006.88 1006.94 1007.00 1007.09 1007.23 1007.45 1007.75 1008.13 1008.58 1009.07 1009.55 1009.99 1010.36 1010.64 1010.84 1010.97 1011.09 1011.23 1011.43 1011.71 1012.07 1012.48 1012.93 1013.35 1013.73 1014.05 1014.30
1008.34 1008.12 1007.90 1007.66 1007.43 1007.22 1007.05 1006.94 1006.89 1006.92 1007.00 1007.13 1007.28 1007.43 1007.56 1007.67 1007.73 1007.78 1007.82 1007.88 1008.00 1008.18 1008.44 1008.78 1009.16 1009.57 1009.96 1010.29 1010.56 1010.75 1010.88 1010.97 1011.08 1011.23 1011.44 1011.74 1012.10 1012.49 1012.89 1013.26 1013.58 1013.83 1014.04
1008.48 1008.33 1008.21 1008.10 1007.99 1007.89 1007.81 1007.75 1007.74 1007.78 1007.87 1008.00 1008.16 1008.31 1008.45 1008.55 1008.62 1008.65 1008.67 1008.71 1008.78 1008.92 1009.11 1009.37 1009.67 1009.99 1010.28 1010.52 1010.71 1010.85 1010.95 1011.04 1011.15 1011.32 1011.56 1011.85 1012.20 1012.55 1012.89 1013.18 1013.41 1013.60 1013.76
1008.66 1008.54 1008.48 1008.45 1008.44 1008.43 1008.42 1008.43 1008.46 1008.52 1008.62 1008.76 1008.92 1009.09 1009.24 1009.35 1009.41 1009.44 1009.44 1009.45 1009.47 1009.55 1009.67 1009.84 1010.06 1010.28 1010.49 1010.68 1010.83 1010.94 1011.05 1011.16 1011.31 1011.51 1011.76 1012.06 1012.36 1012.66 1012.92 1013.13 1013.28 1013.39 1013.49
1008.91 1008.78 1008.74 1008.75 1008.78 1008.83 1008.87 1008.91 1008.97 1009.05 1009.16 1009.31 1009.48 1009.66 1009.82 1009.95 1010.02 1010.04 1010.03 1010.00 1009.98 1009.99 1010.05 1010.15 1010.28 1010.44 1010.60 1010.75 1010.89 1011.02 1011.16 1011.32 1011.51 1011.74 1012.01 1012.29 1012.56 1012.79 1012.97 1013.09 1013.16 1013.20 1013.25
1009.25 1009.08 1009.01 1009.02 1009.06 1009.11 1009.16 1009.21 1009.27 1009.35 1009.47 1009.62 1009.80 1009.99 1010.16 1010.29 1010.37 1010.40 1010.37 1010.32 1010.26 1010.23 1010.23 1010.27 1010.36 1010.48 1010.61 1010.76 1010.90 1011.06 1011.24 1011.44 1011.67 1011.92 1012.20 1012.46 1012.69 1012.87 1012.98 1013.02 1013.02 1013.01 1013.01
1009.64 1009.43 1009.33 1009.29 1009.30 1009.33 1009.35 1009.38 1009.42 1009.49 1009.59 1009.74 1009.92 1010.11 1010.28 1010.42 1010.51 1010.53 1010.50 1010.43 1010.36 1010.30 1010.27 1010.28 1010.34 1010.43 1010.56 1010.70 1010.86 1011.03 1011.23 1011.45 1011.70 1011.96 1012.23 1012.47 1012.66 1012.79 1012.85 1012.85 1012.80 1012.75 1012.72
1010.05 1009.82 1009.68 1009.60 1009.56 1009.54 1009.52 1009.51 1009.52 1009.56 1009.64 1009.77 1009.94 1010.12 1010.29 1010.43 1010.51 1010.53 1010.50 1010.44 1010.36 1010.29 1010.24 1010.24 1010.29 1010.37 1010.48 1010.61 1010.76 1010.93 1011.12 1011.33 1011.56 1011.80 1012.03 1012.24 1012.40 1012.50 1012.53 1012.51 1012.45 1012.38 1012.34
1010.46 1010.22 1010.05 1009.94 1009.86 1009.79 1009.73 1009.68 1009.66 1009.67 1009.73 1009.84 1009.99 1010.16 1010.32 1010.44 1010.52 1010.54 1010.51 1010.44 1010.37 1010.30 1010.26 1010.26 1010.29 1010.36 1010.45 1010.55 1010.66 1010.78 1010.92 1011.07 1011.24 1011.42 1011.60 1011.76 1011.89 1011.97 1012.00 1011.98 1011.93 1011.88 1011.84
1010.84 1010.62 1010.45 1010.32 1010.21 1010.12 1010.03 1009.96 1009.91 1009.91 1009.95 1010.04 1010.18 1010.32 1010.46 1010.57 1010.64 1010.65 1010.62 1010.56 1010.49 1010.44 1010.40 1010.40 1010.42 1010.47 1010.52 1010.56 1010.60 1010.64 1010.68 1010.74 1010.81 1010.90 1011.01 1011.11 1011.20 1011.26 1011.30 1011.30 1011.28 1011.25 1011.24
1011.21 1011.02 1010.87 1010.74 1010.63 1010.53 1010.43 1010.35 1010.30 1010.29 1010.34 1010.42 1010.54 1010.67 1010.80 1010.89 1010.94 1010.94 1010.90 1010.85 1010.79 1010.74 1010.72 1010.71 1010.72 1010.73 1010.73 1010.70 1010.65 1010.58 1010.51 1010.44 1010.39 1010.36 1010.37 1010.40 1010.45 1010.49 1010.53 1010.55 1010.56 1010.57 1010.58
1011.59 1011.44 1011.32 1011.21 1011.11 1011.01 1010.92 1010.86 1010.82 1010.83 1010.88 1010.97 1011.08 1011.20 1011.31 1011.38 1011.42 1011.40 1011.36 1011.31 1011.26 1011.22 1011.20 1011.20 1011.19 1011.17 1011.12 1011.02 1010.87 1010.69 1010.49 1010.28 1010.10 1009.96 1009.86 1009.81 1009.80 1009.81 1009.83 1009.86 1009.89 1009.92 1009.95
1012.03 1011.92 1011.82 1011.73 1011.64 1011.56 1011.49 1011.44 1011.43 1011.46 1011.53 1011.63 1011.75 1011.87 1011.96 1012.02 1012.04 1012.01 1011.96 1011.91 1011.86 1011.83 1011.82 1011.81 1011.80 1011.76 1011.67 1011.51 1011.29 1011.01 1010.70 1010.39 1010.09 1009.83 1009.63 1009.49 1009.41 1009.37 1009.36 1009.37 1009.39 1009.41 1009.44
1012.56 1012.47 1012.38 1012.30 1012.22 1012.15 1012.10 1012.08 1012.09 1012.14 1012.23 1012.35 1012.48 1012.59 1012.68 1012.73 1012.73 1012.69 1012.64 1012.57 1012.53 1012.50 1012.50 1012.50 1012.50 1012.45 1012.34 1012.16 1011.90 1011.57 1011.19 1010.79 1010.41 1010.06 1009.77 1009.55 1009.39 1009.28 1009.21 1009.17 1009.15 1009.14 1009.13
1013.19 1013.11 1013.02 1012.93 1012.86 1012.79 1012.75 1012.73 1012.76 1012.83 1012.93 1013.06 1013.19 1013.31 1013.39 1013.43 1013.42 1013.37 1013.30 1013.23 1013.18 1013.16 1013.16 1013.18 1013.19 1013.16 1013.07 1012.90 1012.64 1012.30 1011.90 1011.48 1011.04 1010.64 1010.28 1009.99 1009.75 1009.56 1009.41 1009.30 1009.21 1009.13 1009.07
1013.90 1013.81 1013.71 1013.62 1013.54 1013.46 1013.42 1013.40 1013.43 1013.50 1013.61 1013.74 1013.87 1013.98 1014.05 1014.07 1014.04 1013.98 1013.90 1013.82 1013.76 1013.74 1013.75 1013.78 1013.81 1013.81 1013.76 1013.63 1013.41 1013.11 1012.74 1012.33 1011.90 1011.47 1011.08 1010.73 1010.42 1010.16 1009.92 1009.72 1009.54 1009.38 1009.24
1014.63 1014.54 1014.44 1014.34 1014.25 1014.16 1014.10 1014.08 1014.09 1014.15 1014.24 1014.36 1014.48 1014.57 1014.63 1014.64 1014.59 1014.51 1014.40 1014.30 1014.23 1014.20 1014.20 1014.24 1014.30 1014.33 1014.33 1014.26 1014.11 1013.88 1013.57 1013.21 1012.82 1012.42 1012.02 1011.64 1011.28 1010.95 1010.63 1010.34 1010.06 1009.81 1009.59
1015.33 1015.25 1015.16 1015.07 1014.97 1014.87 1014.80 1014.75 1014.74 1014.77 1014.84 1014.93 1015.02 1015.09 1015.12 1015.11 1015.04 1014.94 1014.81 1014.68 1014.59 1014.53 1014.52 1014.56 1014.62 1014.68 1014.72 1014.72 1014.64 1014.49 1014.27 1013.99 1013.66 1013.30 1012.93 1012.54 1012.16 1011.78 1011.41 1011.04 1010.69 1010.35 1010.05
1015.94 1015.89 1015.83 1015.75 1015.65 1015.55 1015.46 1015.39 1015.34 1015.34 1015.37 1015.42 1015.48 1015.53 1015.54 1015.50 1015.41 1015.28 1015.12 1014.97 1014.84 1014.74 1014.71 1014.72 1014.77 1014.85 1014.92 1014.96 1014.95 1014.88 1014.74 1014.55 1014.29 1013.99 1013.66 1013.30 1012.92 1012.53 1012.12 1011.71 1011.30 1010.91 1010.54
1016.42 1016.42 1016.40 1016.34 1016.26 1016.16 1016.05 1015.95 1015.87 1015.83 1015.82 1015.84 1015.86 1015.88 1015.87 1015.81 1015.70 1015.55 1015.36 1015.17 1015.00 1014.87 1014.78 1014.76 1014.79 1014.85 1014.92 1014.99 1015.02 1015.01 1014.94 1014.81 1014.63 1014.40 1014.12 1013.81 1013.46 1013.08 1012.67 1012.25 1011.82 1011.40 1011.00
1016.77 1016.81 1016.83 1016.80 1016.74 1016.64 1016.52 1016.39 1016.28 1016.20 1016.16 1016.14 1016.14 1016.13 1016.10 1016.03 1015.91 1015.74 1015.53 1015.31 1015.10 1014.92 1014.79 1014.71 1014.69 1014.72 1014.77 1014.83 1014.88 1014.89 1014.87 1014.79 1014.67 1014.49 1014.27 1014.01 1013.71 1013.37 1013.00 1012.60 1012.19 1011.77 1011.36
1016.97 1017.06 1017.10 1017.10 1017.04 1016.94 1016.80 1016.66 1016.52 1016.41 1016.34 1016.30 1016.28 1016.26 1016.23 1016.15 1016.03 1015.86 1015.64 1015.40 1015.15 1014.92 1014.74 1014.60 1014.53 1014.50 1014.51 1014.54 1014.57 1014.58 1014.57 1014.52 1014.43 1014.31 1014.14 1013.93 1013.69 1013.41 1013.10 1012.75 1012.38 1011.99 1011.60
1017.06 1017.16 1017.21 1017.20 1017.14 1017.03 1016.88 1016.72 1016.56 1016.44 1016.35 1016.30 1016.28 1016.27 1016.24 1016.17 1016.06 1015.88 1015.66 1015.41 1015.13 1014.87 1014.64 1014.45 1014.31 1014.22 1014.17 1014.15 1014.14 1014.13 1014.11 1014.06 1013.99 1013.89 1013.77 1013.62 1013.44 1013.23 1012.98 1012.70 1012.39 1012.05 1011.70
Thickness
5782 5782 5781 5780 5779 5778 5777 5775 5775 5774 5774 5773 5771 5769 5767 5765 5763 5761 5760 5759 5758 5756 5754 5752 5750 5748 5745 5743 5741 5740 5738 5737 5736 5735 5734 5732 5731 5730 5729 5728 5727 5726 5725
5784 5783 5782 5781 5780 5779 5778 5776 5775 5774 5773 5773 5771 5770 5768 5766 5764 5762 5761 5759 5758 5756 5754 5752 5750 5748 5746 5744 5742 5740 5738 5737 5736 5735 5734 5732 5731 5730 5728 5727 5726 5725 5724
5785 5784 5782 5781 5780 5780 5778 5777 5776 5775 5774 5773 5771 5770 5768 5767 5765 5763 5761 5759 5758 5756 5754 5753 5751 5749 5747 5745 5743 5741 5739 5738 5737 5735 5734 5733 5731 5730 5729 5728 5727 5725 5724
5786 5785 5783 5781 5781 5780 5779 5777 5776 5773 5772 5771 5770 5770 5769 5767 5765 5764 5762 5760 5758 5756 5755 5753 5751 5749 5747 5745 5743 5742 5740 5738 5737 5735 5734 5732 5731 5730 5729 5728 5727 5725 5724
5787 5785 5784 5782 5781 5780 5778 5778 5775 5774 5771 5770 5770 5769 5768 5767 5766 5765 5763 5761 5759 5757 5755 5754 5752 5750 5748 5746 5744 5742 5740 5738 5737 5735 5733 5732 5731 5730 5729 5728 5726 5725 5724
5787 5785 5784 5783 5782 5779 5777 5776 5775 5774 5773 5771 5770 5769 5768 5767 5766 5764 5763 5761 5759 5758 5756 5754 5752 5750 5748 5746 5744 5742 5741 5739 5737 5735 5733 5732 5731 5730 5729 5728 5726 5725 5723
5786 5785 5784 5782 5781 5778 5777 5776 5775 5773 5771 5771 5766 5762 5764 5766 5765 5765 5764 5761 5760 5759 5757 5755 5752 5750 5748 5746 5745 5743 5741 5739 5737 5735 5733 5732 5730 5729 5729 5727 5726 5725 5723
5786 5786 5784 5782 5780 5778 5776 5775 5774 5770 5769 5769 5764 5757 5753 5755 5761 5765 5763 5762 5761 5759 5757 5755 5752 5750 5748 5747 5745 5743 5741 5739 5738 5735 5733 5731 5730 5729 5728 5726 5725 5723 5721
5786 5785 5784 5782 5780 5778 5775 5774 5773 5769 5765 5766 5766 5759 5750 5746 5752 5758 5761 5762 5760 5758 5757 5755 5752 5750 5748 5747 5745 5744 5741 5739 5737 5736 5734 5732 5730 5729 5727 5726 5724 5722 5720
5785 5785 5783 5782 5780 5778 5776 5774 5773 5770 5767 5763 5764 5764 5760 5756 5749 5748 5754 5758 5759 5757 5756 5755 5753 5751 5749 5747 5744 5743 5741 5739 5737 5736 5734 5731 5729 5727 5726 5724 5722 5721 5719
5784 5784 5783 5781 5779 5778 5776 5774 5772 5770 5767 5764 5761 5760 5758 5756 5753 5747 5744 5749 5753 5755 5755 5754 5753 5751 5749 5747 5745 5743 5741 5739 5737 5736 5734 5731 5728 5726 5724 5723 5721 5719 5717
5782 5782 5782 5780 5778 5777 5775 5773 5771 5769 5767 5764 5762 5759 5756 5752 5749 5747 5743 5743 5745 5749 5752 5752 5751 5750 5748 5747 5745 5744 5741 5739 5736 5734 5732 5730 5728 5726 5723 5721 5719 5718 5716
5779 5780 5780 5778 5777 5776 5775 5773 5770 5768 5766 5763 5761 5759 5757 5755 5753 5749 5744 5741 5741 5745 5748 5749 5750 5749 5747 5746 5744 5743 5740 5737 5735 5733 5731 5729 5727 5725 5722 5720 5718 5715 5714
5780 5780 5779 5778 5776 5775 5774 5771 5769 5767 5765 5763 5761 5758 5756 5755 5753 5750 5746 5741 5737 5738 5741 5743 5747 5747 5746 5744 5743 5741 5739 5737 5734 5732 5730 5728 5725 5723 5721 5718 5715 5714 5712
5780 5779 5778 5776 5775 5774 5772 5770 5767 5764 5763 5760 5758 5756 5754 5753 5752 5750 5748 5744 5736 5731 5733 5739 5742 5745 5744 5743 5742 5739 5737 5735 5733 5730 5728 5726 5724 5721 5719 5717 5714 5712 5710
5780 5778 5776 5775 5773 5772 5770 5767 5764 5762 5760 5757 5755 5753 5751 5750 5749 5748 5746 5744 5740 5735 5731 5737 5739 5742 5742 5741 5740 5737 5735 5733 5731 5729 5727 5725 5722 5720 5718 5715 5713 5711 5709
5778 5775 5774 5772 5770 5769 5767 5764 5762 5759 5756 5754 5753 5751 5749 5749 5747 5745 5743 5741 5739 5736 5730 5734 5737 5738 5737 5736 5735 5734 5732 5730 5729 5727 5725 5723 5721 5718 5716 5713 5711 5709 5706
5776 5774 5772 5770 5768 5766 5764 5762 5759 5757 5754 5751 5749 5748 5746 5746 5744 5742 5740 5738 5736 5735 5730 5728 5731 5732 5731 5732 5731 5729 5728 5727 5726 5725 5723 5721 5719 5716 5714 5711 5709 5706 5704
5773 5772 5769 5767 5765 5763 5761 5759 5757 5754 5752 5749 5747 5745 5743 5742 5739 5738 5737 5735 5733 5733 5730 5726 5725 5726 5726 5726 5724 5723 5723 5722 5723 5722 5720 5718 5716 5714 5711 5709 5706 5704 5701
5771 5768 5766 5764 5762 5760 5758 5756 5753 5751 5748 5746 5745 5743 5741 5739 5737 5735 5733 5731 5729 5727 5724 5722 5719 5719 5719 5720 5717 5714 5713 5715 5715 5717 5716 5714 5712 5710 5708 5706 5704 5701 5699
5769 5766 5763 5761 5759 5757 5755 5752 5750 5748 5744 5742 5741 5740 5739 5738 5736 5733 5731 5728 5725 5721 5718 5715 5713 5711 5711 5709 5708 5709 5707 5707 5708 5710 5709 5709 5707 5705 5704 5702 5700 5698 5696
5764 5761 5759 5757 5754 5753 5752 5749 5746 5744 5741 5738 5736 5735 5734 5732 5731 5729 5728 5726 5723 5718 5714 5710 5707 5705 5704 5704 5703 5703 5700 5698 5698 5703 5701 5702 5702 5700 5700 5699 5698 5695 5692
5758 5756 5754 5752 5750 5749 5747 5745 5741 5738 5735 5733 5731 5729 5728 5728 5725 5722 5721 5720 5717 5715 5713 5709 5703 5701 5701 5700 5698 5696 5693 5692 5692 5696 5695 5694 5695 5694 5696 5695 5694 5691 5688
5753 5751 5750 5748 5745 5744 5742 5740 5737 5733 5731 5729 5727 5725 5722 5720 5720 5716 5714 5711 5709 5708 5707 5705 5701 5700 5699 5698 5695 5692 5690 5688 5688 5689 5689 5686 5688 5688 5690 5689 5689 5687 5684
5748 5746 5745 5742 5740 5737 5736 5735 5731 5728 5725 5724 5722 5720 5718 5714 5714 5711 5707 5704 5702 5700 5701 5699 5698 5696 5694 5692 5689 5685 5682 5679 5678 5680 5681 5679 5680 5680 5681 5681 5682 5681 5678
5742 5741 5739 5737 5735 5732 5731 5730 5727 5722 5718 5716 5715 5713 5711 5709 5707 5704 5700 5697 5694 5693 5692 5691 5690 5689 5687 5685 5684 5681 5677 5673 5671 5671 5674 5672 5671 5670 5669 5672 5672 5672 5670